Location: Sternwarte Hubelmatt
(47.0367°N, 8.3053°E)
Time: 02:39:56
(UTC+02:00)

UWE-3 - Pass Details

Date: 27 April 2024
Orbit: 569 x 652 km, 97.8° (Epoch: 23 May)

Event Time Altitude Azimuth Distance (km) Brightness Sun altitude
Rises 02:35:38 0° 35° (NE) 2,880 ? -27.0°
Reaches altitude 10° 02:39:41 10° 74° (ENE) 1,993 ? -26.7°
Maximum altitude 02:40:44 11° 88° (E) 1,948 ? -26.7°
Drops below altitude 10° 02:41:46 10° 102° (ESE) 2,001 ? -26.6°
Enters shadow 02:42:13 - 107° (ESE) 2,052 ? -26.6°
